Voltar ao catálogo

BREEZE-M DEB

TANK

AtivoHEO
NORAD 47243·DEBRIS·🇷🇺 Russia

Lançado Dec 14, 2020 de Plesetsk Cosmodrome

Loading…

Próximas Passagens (próximas 24 horas)

TLE

AtualizadoSource: Space-Track

Época: Sep 13, 2026, 21:49 UTC

1 47243U 20097B   26256.90905970  .00001632  00000-0  10647-2 0  9990
2 47243  58.5505  89.4676 7320153 117.1155 332.8009  2.20830572 46163

Acompanhe BREEZE-M DEB em tempo real com AllMySat

Download on the App Store